Weather History for Marion, VA

Change the Weather History Date:

Friday, March 1, 2013

  Actual Average (KGEV) Record (KGEV)
Temperature  
Mean Temperature 36 °F -  
Max Temperature 39 °F 48 °F 71 °F (1972)
Min Temperature 32 °F 28 °F 11 °F (1980)
Degree Days  
Heating Degree Days 30    
Moisture  
Dew Point 29 °F    
Average Humidity 82    
Maximum Humidity 100    
Minimum Humidity 65    
Precipitation  
Precipitation 0.00 in - - ()
Sea Level Pressure  
Sea Level Pressure 29.86 in    
Wind  
Wind Speed 12 mph (West)    
Max Wind Speed 22 mph    
Max Gust Speed 30 mph    
Visibility 9 miles    
Events Snow    
Averages and records for this station are not official NWS values.
T = Trace of Precipitation, MM = Missing Value Source: NWS Daily Summary

Daily Weather History Graph

Daily Weather History Graph

Search for Another Location

Airport:

Trip Planner

Search our weather history database for the weather conditions in past years. The results will help you decide how hot, cold, wet, or windy it might be!

Date:

Astronomy

Mar. 01, 2013 Rise Set
Actual Time 6:55 AM EST 6:19 PM EST
Civil Twilight 6:29 AM EST 6:45 PM EST
Nautical Twilight 5:59 AM EST 7:16 PM EST
Astronomical Twilight 5:29 AM EST 7:46 PM EST
Moon 10:43 PM EST (3/1) 8:49 AM EST (3/1)
Length of Visible Light 12h 16m
Length of Day
11h 24m
Waning Gibbous, 83% of the Moon is Illuminated
Mar 1
Waning Gibbous
Mar 4
Last Quarter
Mar 11
New
Mar 19
First Quarter
Mar 27
Full

Hourly Weather History & Observations

Time (EST) Temp. Windchill Dew Point Humidity Pressure Visibility Wind Dir Wind Speed Gust Speed Precip Events Conditions
12:15 AM 32.0 °F 21.2 °F 29.3 °F 90% 29.84 in 7.0 mi West 16.1 mph 23.0 mph N/A   Overcast
12:35 AM 32.0 °F 19.5 °F 29.3 °F 90% 29.83 in 7.0 mi WNW 21.9 mph 29.9 mph N/A   Overcast
12:55 AM 32.0 °F 20.5 °F 30.2 °F 93% 29.83 in 7.0 mi West 18.4 mph 25.3 mph N/A   Overcast
1:15 AM 32.0 °F 21.6 °F 29.5 °F 90% 29.83 in 10.0 mi West 15.0 mph 21.9 mph N/A   Overcast
1:35 AM 32.0 °F 21.2 °F 29.5 °F 90% 29.83 in 10.0 mi West 16.1 mph 23.0 mph N/A   Overcast
1:55 AM 32.0 °F 21.2 °F 29.3 °F 90% 29.84 in 10.0 mi West 16.1 mph 26.5 mph N/A   Overcast
2:15 AM 32.0 °F 21.6 °F 29.8 °F 92% 29.83 in 10.0 mi West 15.0 mph 19.6 mph N/A   Overcast
2:35 AM 32.0 °F 22.1 °F 29.5 °F 90% 29.82 in 10.0 mi West 13.8 mph 25.3 mph N/A   Overcast
3:15 AM 32.0 °F 23.0 °F 30.4 °F 94% 29.82 in 7.0 mi West 11.5 mph 18.4 mph N/A   Overcast
3:35 AM 32.0 °F 24.2 °F 31.8 °F 99% 29.82 in 7.0 mi West 9.2 mph - N/A   Overcast
3:55 AM 32.0 °F 24.2 °F 31.8 °F 99% 29.82 in 5.0 mi West 9.2 mph 18.4 mph N/A Snow Light Snow
4:35 AM 32.0 °F 23.0 °F 32.0 °F 100% 29.82 in 7.0 mi West 11.5 mph - N/A Snow Light Snow
4:55 AM 32.0 °F 24.2 °F 32.0 °F 100% 29.82 in 5.0 mi WSW 9.2 mph - N/A Snow Light Snow
5:15 AM 32.0 °F 24.2 °F 32.0 °F 100% 29.82 in 5.0 mi WSW 9.2 mph - N/A Snow Light Snow
5:35 AM 32.0 °F 24.2 °F 32.0 °F 100% 29.83 in 5.0 mi WSW 9.2 mph - N/A   Overcast
5:55 AM 32.0 °F 23.6 °F 32.0 °F 100% 29.84 in 5.0 mi WSW 10.4 mph - N/A   Overcast
6:15 AM 32.0 °F 23.0 °F 32.0 °F 100% 29.85 in 7.0 mi WSW 11.5 mph - N/A   Overcast
6:35 AM 32.0 °F 24.2 °F 32.0 °F 100% 29.85 in 7.0 mi WSW 9.2 mph - N/A   Overcast
6:55 AM 32.0 °F 24.2 °F 32.0 °F 100% 29.85 in 7.0 mi WSW 9.2 mph - N/A   Overcast
7:15 AM 32.0 °F 24.8 °F 32.0 °F 100% 29.85 in 5.0 mi WSW 8.1 mph - N/A Snow Light Snow
7:35 AM 32.0 °F 23.6 °F 32.0 °F 100% 29.85 in 4.0 mi WSW 10.4 mph - N/A Snow Light Snow
7:55 AM 32.2 °F 24.4 °F 32.2 °F 100% 29.85 in 4.0 mi West 9.2 mph - N/A Snow Light Snow
8:15 AM 32.5 °F 24.8 °F 32.0 °F 98% 29.85 in 10.0 mi WSW 9.2 mph - N/A   Overcast
8:35 AM 33.1 °F 24.4 °F 30.2 °F 89% 29.86 in 10.0 mi West 11.5 mph 19.6 mph N/A   Overcast
8:55 AM 32.9 °F 24.1 °F 31.8 °F 96% 29.86 in 10.0 mi West 11.5 mph 18.4 mph N/A   Overcast
9:15 AM 33.4 °F 25.9 °F 31.3 °F 92% 29.87 in 10.0 mi WSW 9.2 mph 19.6 mph N/A   Overcast
9:35 AM 33.8 °F 25.8 °F 32.5 °F 95% 29.86 in 10.0 mi WSW 10.4 mph - N/A   Overcast
9:55 AM 34.2 °F 25.7 °F 32.4 °F 93% 29.86 in 10.0 mi WSW 11.5 mph - N/A   Overcast
10:15 AM 34.9 °F 26.2 °F 29.8 °F 82% 29.86 in 10.0 mi WNW 12.7 mph - N/A   Overcast
10:35 AM 34.7 °F 26.9 °F 28.6 °F 78% 29.86 in 10.0 mi West 10.4 mph 20.7 mph N/A   Overcast
11:15 AM 34.7 °F 25.5 °F 29.3 °F 81% 29.87 in 10.0 mi West 13.8 mph - N/A   Overcast
11:35 AM 34.9 °F 26.6 °F 29.3 °F 80% 29.87 in 10.0 mi West 11.5 mph - N/A   Overcast
11:55 AM 35.1 °F 26.9 °F 28.4 °F 77% 29.87 in 10.0 mi West 11.5 mph 17.3 mph N/A   Overcast
12:15 PM 34.9 °F 24.2 °F 28.2 °F 77% 29.86 in 10.0 mi West 18.4 mph 24.2 mph N/A   Overcast
12:35 PM 34.7 °F 28.8 °F 29.1 °F 80% 29.87 in 7.0 mi NW 6.9 mph - N/A Snow Light Snow
1:15 PM 35.1 °F 28.6 °F 28.8 °F 78% 29.86 in 10.0 mi WNW 8.1 mph - N/A   Overcast
1:35 PM 36.5 °F 29.2 °F 28.6 °F 73% 29.85 in 10.0 mi WNW 10.4 mph 16.1 mph N/A   Overcast
1:55 PM 36.1 °F 27.3 °F 27.5 °F 71% 29.84 in 10.0 mi WNW 13.8 mph 19.6 mph N/A   Overcast
2:15 PM 38.3 °F 29.7 °F 28.4 °F 68% 29.84 in 10.0 mi West 15.0 mph 23.0 mph N/A   Overcast
2:35 PM 37.4 °F 28.5 °F 27.3 °F 67% 29.84 in 10.0 mi WNW 15.0 mph 26.5 mph N/A   Overcast
2:55 PM 36.5 °F 27.4 °F 26.6 °F 67% 29.84 in 10.0 mi WNW 15.0 mph 27.6 mph N/A   Overcast
3:15 PM 39.6 °F 32.5 °F 28.6 °F 65% 29.84 in 10.0 mi West 11.5 mph 23.0 mph N/A   Overcast
3:35 PM 37.4 °F 28.5 °F 26.4 °F 65% 29.84 in 10.0 mi West 15.0 mph 21.9 mph N/A   Overcast
3:55 PM 36.9 °F 28.2 °F 26.2 °F 65% 29.84 in 10.0 mi WNW 13.8 mph - N/A   Overcast
4:15 PM 36.7 °F 28.4 °F 27.1 °F 68% 29.84 in 10.0 mi West 12.7 mph 19.6 mph N/A   Overcast
4:35 PM 36.5 °F 28.7 °F 27.1 °F 69% 29.84 in 10.0 mi West 11.5 mph 20.7 mph N/A   Overcast
4:55 PM 36.5 °F 28.2 °F 26.4 °F 67% 29.84 in 10.0 mi WNW 12.7 mph 18.4 mph N/A   Overcast
5:15 PM 36.0 °F 30.3 °F 26.6 °F 69% 29.86 in 10.0 mi NW 6.9 mph - N/A   Overcast
5:35 PM 35.6 °F 29.9 °F 27.0 °F 71% 29.86 in 10.0 mi NNW 6.9 mph - N/A   Overcast
5:55 PM 35.2 °F 27.6 °F 27.5 °F 73% 29.86 in 10.0 mi WNW 10.4 mph - N/A Snow Light Snow
6:15 PM 34.9 °F 28.3 °F 26.8 °F 72% 29.87 in 10.0 mi West 8.1 mph - N/A Snow Light Snow
6:35 PM 34.7 °F 28.8 °F 27.0 °F 73% 29.88 in 10.0 mi NW 6.9 mph - N/A   Overcast
6:55 PM 34.7 °F 26.9 °F 26.8 °F 73% 29.88 in 10.0 mi West 10.4 mph - N/A   Overcast
7:15 PM 34.7 °F 26.9 °F 26.8 °F 73% 29.88 in 10.0 mi WNW 10.4 mph - N/A   Overcast
7:35 PM 34.7 °F 29.6 °F 27.0 °F 73% 29.89 in 10.0 mi West 5.8 mph - N/A   Overcast
7:55 PM 34.7 °F 26.9 °F 26.8 °F 73% 29.88 in 10.0 mi WNW 10.4 mph 16.1 mph N/A   Overcast
8:15 PM 34.5 °F 30.4 °F 27.0 °F 74% 29.89 in 10.0 mi WNW 4.6 mph - N/A   Overcast
8:35 PM 34.2 °F 27.5 °F 26.8 °F 74% 29.89 in 10.0 mi WNW 8.1 mph - N/A   Overcast
8:55 PM 34.2 °F 29.0 °F 26.6 °F 74% 29.89 in 10.0 mi West 5.8 mph - N/A   Overcast
9:15 PM 34.2 °F 30.0 °F 26.6 °F 74% 29.89 in 10.0 mi WNW 4.6 mph - N/A   Overcast
9:35 PM 33.8 °F 27.7 °F 26.6 °F 75% 29.89 in 10.0 mi West 6.9 mph - N/A   Overcast
9:55 PM 33.8 °F 27.0 °F 26.1 °F 73% 29.89 in 10.0 mi WNW 8.1 mph - N/A   Overcast
10:15 PM 33.4 °F 26.6 °F 26.4 °F 75% 29.89 in 10.0 mi West 8.1 mph - N/A   Overcast
10:35 PM 33.4 °F 28.1 °F 26.2 °F 75% 29.89 in 10.0 mi West 5.8 mph - N/A   Overcast
10:55 PM 33.3 °F 27.9 °F 25.9 °F 74% 29.89 in 10.0 mi West 5.8 mph - N/A   Overcast
11:15 PM 33.3 °F 28.9 °F 25.5 °F 73% 29.89 in 10.0 mi West 4.6 mph - N/A   Overcast
11:35 PM 33.1 °F 26.9 °F 25.7 °F 74% 29.88 in 10.0 mi West 6.9 mph - N/A   Overcast
11:55 PM 32.9 °F 26.7 °F 24.8 °F 72% 29.88 in 10.0 mi WNW 6.9 mph - N/A   Overcast